EW1613 Weather Reports


Display with metric or nautical units.
time (UTC)temp
F
wind
direction
speed
MPH
gust
MPH
rain 1hr
in
rain 24hr
in
rain mn
in
humidity
%
barometer
mb
20260510181947 60 64 0.0 3.0 0.00 0.71 0.14 91 1012.5
20260510181505 60 65 1.0 3.0 0.00 0.71 0.14 91 1012.5
20260510180939 60 65 1.0 3.0 0.00 0.71 0.14 91 1012.5
20260510180456 60 65 0.0 3.0 0.00 0.71 0.14 91 1012.6
20260510175945 60 65 0.0 3.0 0.00 0.71 0.14 91 1012.6
20260510175440 60 65 0.0 4.0 0.00 0.71 0.14 91 1012.6
20260510174958 60 67 2.0 4.0 0.00 0.71 0.14 91 1012.5
20260510174447 60 58 1.0 4.0 0.04 0.71 0.14 91 1012.5
20260510173959 60 63 1.0 4.0 0.12 0.71 0.14 91 1012.6
20260510173449 60 61 0.0 4.0 0.20 0.71 0.14 92 1012.6
20260510172945 60 53 1.0 4.0 0.24 0.71 0.14 92 1012.7
20260510172523 60 55 2.0 4.0 0.28 0.71 0.14 92 1012.7
20260510171951 60 61 2.0 5.0 0.31 0.71 0.14 92 1012.7
20260510171447 60 35 1.0 5.0 0.31 0.71 0.14 92 1012.7
20260510170943 60 67 2.0 5.0 0.35 0.71 0.14 92 1012.8
20260510170439 61 63 2.0 4.0 0.39 0.71 0.14 92 1012.8
20260510165956 61 68 2.0 5.0 0.39 0.71 0.14 92 1012.9
20260510165452 61 69 3.0 5.0 0.39 0.71 0.14 92 1012.9
20260510164940 61 65 2.0 3.0 0.35 0.67 0.13 91 1013.0
20260510164517 61 96 1.0 3.0 0.35 0.67 0.13 91 1013.0
20260510163951 61 95 0.0 3.0 0.28 0.59 0.12 91 1012.9
20260510163502 61 94 1.0 4.0 0.20 0.51 0.10 91 1012.9
20260510163000 61 90 1.0 6.0 0.12 0.43 0.09 91 1012.9
20260510162453 62 101 2.0 6.0 0.08 0.39 0.08 91 1012.9
20260510161952 62 116 2.0 7.0 0.08 0.39 0.08 91 1012.9
20260510161441 62 95 3.0 8.0 0.12 0.39 0.08 91 1012.9
20260510160959 62 53 3.0 8.0 0.12 0.35 0.07 90 1012.9
20260510160448 62 90 3.0 6.0 0.08 0.31 0.06 90 1012.9
20260510155946 63 85 3.0 8.0 0.08 0.31 0.06 90 1012.9
20260510155519 63 104 4.0 8.0 0.12 0.31 0.06 89 1013.0
20260510154954 63 103 3.0 8.0 0.12 0.31 0.06 90 1013.0
20260510154442 63 141 2.0 7.0 0.16 0.31 0.06 90 1013.0
20260510154018 64 59 1.0 7.0 0.16 0.31 0.06 90 1013.1
20260510153454 64 69 2.0 4.0 0.16 0.31 0.06 89 1013.1
20260510152944 64 92 2.0 4.0 0.20 0.31 0.06 89 1013.1
20260510152442 64 78 1.0 2.0 0.20 0.31 0.06 89 1013.0
20260510151951 64 87 1.0 2.0 0.16 0.28 0.06 88 1013.1
20260510151450 64 98 1.0 2.0 0.16 0.28 0.06 88 1013.1
20260510150940 64 98 0.0 2.0 0.12 0.24 0.05 88 1013.1
20260510150457 64 98 0.0 2.0 0.16 0.24 0.05 87 1013.1
20260510145953 64 98 0.0 0.0 0.16 0.24 0.05 87 1013.1
20260510145441 64 98 0.0 2.0 0.12 0.20 0.04 86 1013.1
20260510144956 64 98 1.0 2.0 0.12 0.20 0.04 86 1013.1
20260510144451 64 98 0.0 2.0 0.08 0.16 0.03 86 1013.2
20260510144002 64 98 0.0 2.0 0.08 0.16 0.03 85 1013.1
20260510143459 64 98 1.0 2.0 0.04 0.12 0.02 84 1013.1
20260510142952 64 98 0.0 1.0 0.04 0.12 0.02 84 1013.1
20260510142508 64 98 0.0 2.0 0.04 0.12 0.02 84 1013.2
20260510142002 64 98 0.0 3.0 0.04 0.12 0.02 83 1013.2
20260510141453 64 98 1.0 3.0 0.04 0.12 0.02 83 1013.2
20260510140944 64 97 1.0 3.0 0.04 0.12 0.02 82 1013.2
20260510140439 64 97 1.0 3.0 0.00 0.08 0.02 81 1013.2
20260510135957 65 95 1.0 3.0 0.04 0.08 0.02 82 1013.2
20260510135447 65 104 1.0 3.0 0.04 0.08 0.02 81 1013.2
20260510135003 65 103 0.0 4.0 0.04 0.08 0.02 82 1013.2
20260510134458 65 109 1.0 4.0 0.04 0.08 0.02 82 1013.3
20260510134014 65 102 1.0 4.0 0.04 0.08 0.02 81 1013.3
20260510133441 65 61 1.0 5.0 0.08 0.08 0.02 80 1013.3
20260510132956 65 61 2.0 5.0 0.08 0.08 0.02 80 1013.3
20260510132511 65 49 1.0 4.0 0.08 0.08 0.02 79 1013.4
20260510131940 65 53 1.0 4.0 0.08 0.08 0.02 79 1013.4
20260510131457 65 57 1.0 4.0 0.08 0.08 0.02 79 1013.3
20260510130947 65 41 2.0 4.0 0.08 0.08 0.02 79 1013.3
20260510130444 65 46 2.0 5.0 0.08 0.08 0.02 78 1013.4
20260510130000 66 65 3.0 5.0 0.04 0.04 0.01 77 1013.4
20260510125445 66 60 1.0 5.0 0.04 0.04 0.01 77 1013.5
20260510125003 66 18 2.0 4.0 0.04 0.04 0.01 75 1013.5
20260510124458 66 10 1.0 4.0 0.04 0.04 0.01 76 1013.5
20260510123947 67 53 1.0 5.0 0.04 0.04 0.01 75 1013.5
20260510123501 67 48 2.0 5.0 0.00 0.00 0.00 73 1013.7
20260510122955 67 65 3.0 5.0 0.00 0.00 0.00 70 1013.8
20260510122458 67 61 1.0 9.0 0.00 0.00 0.00 70 1013.8
20260510121956 67 5 2.0 9.0 0.00 0.00 0.00 69 1013.7
20260510121453 67 55 4.0 9.0 0.00 0.00 0.00 69 1013.7
20260510121002 67 38 4.0 8.0 0.00 0.00 0.00 68 1013.7
20260510120457 67 16 2.0 7.0 0.00 0.00 0.00 69 1013.8
20260510115953 67 5 3.0 5.0 0.00 0.00 0.00 69 1013.8
20260510115444 67 53 0.0 4.0 0.00 0.00 0.00 69 1013.9
20260510114939 67 53 2.0 6.0 0.00 0.00 0.00 68 1013.9
20260510114450 67 47 1.0 6.0 0.00 0.00 0.00 70 1013.9
20260510113949 67 19 1.0 5.0 0.00 0.00 0.00 70 1013.9
20260510113438 67 31 2.0 5.0 0.00 0.00 0.00 69 1013.9
20260510112957 67 61 3.0 4.0 0.00 0.00 0.00 68 1014.0
20260510112452 67 44 2.0 4.0 0.00 0.00 0.00 67 1014.0
20260510111942 67 84 1.0 4.0 0.00 0.00 0.00 67 1014.0
20260510111457 67 28 1.0 4.0 0.00 0.00 0.00 68 1014.1
20260510111013 67 355 2.0 4.0 0.00 0.00 0.00 67 1014.2
20260510110502 68 355 1.0 4.0 0.00 0.00 0.00 67 1014.2
20260510105958 67 344 1.0 4.0 0.00 0.00 0.00 67 1014.2
20260510105449 67 336 2.0 6.0 0.00 0.00 0.00 67 1014.3
20260510104941 67 11 2.0 6.0 0.00 0.00 0.00 67 1014.3
20260510104457 67 351 1.0 6.0 0.00 0.00 0.00 68 1014.3
20260510104010 67 5 3.0 6.0 0.00 0.00 0.00 68 1014.3
20260510103505 67 351 2.0 5.0 0.00 0.00 0.00 68 1014.5
20260510103021 67 10 1.0 5.0 0.00 0.00 0.00 69 1014.5
20260510102448 66 342 1.0 4.0 0.00 0.00 0.00 70 1014.5
20260510101947 66 335 2.0 4.0 0.00 0.00 0.00 70 1014.6
20260510101455 66 343 2.0 4.0 0.00 0.00 0.00 70 1014.6
20260510100950 66 17 2.0 4.0 0.00 0.00 0.00 70 1014.6
20260510100441 66 360 2.0 4.0 0.00 0.00 0.00 71 1014.7
20260510095939 66 335 0.0 3.0 0.00 0.00 0.00 72 1014.7
20260510095515 65 333 1.0 3.0 0.00 0.00 0.00 72 1014.7
20260510094943 65 332 1.0 4.0 0.00 0.00 0.00 72 1014.7
20260510094439 65 331 2.0 4.0 0.00 0.00 0.00 72 1014.8
20260510094015 65 333 2.0 4.0 0.00 0.00 0.00 72 1014.8
20260510093444 65 5 1.0 4.0 0.00 0.00 0.00 73 1014.8
20260510092940 65 12 2.0 4.0 0.00 0.00 0.00 73 1014.8
20260510092459 65 15 1.0 5.0 0.00 0.00 0.00 74 1014.7
20260510091943 65 355 1.0 5.0 0.00 0.00 0.00 74 1014.8
20260510091452 65 9 1.0 4.0 0.00 0.00 0.00 75 1014.8
20260510091005 65 28 2.0 4.0 0.00 0.00 0.00 75 1014.8
20260510090440 65 26 1.0 3.0 0.00 0.00 0.00 76 1014.9
20260510085953 65 47 0.0 2.0 0.00 0.00 0.00 77 1014.9
20260510085442 65 47 0.0 2.0 0.00 0.00 0.00 78 1014.9
20260510084941 65 47 0.0 2.0 0.00 0.00 0.00 78 1015.0
20260510084450 65 47 0.0 2.0 0.00 0.00 0.00 77 1015.0
20260510084007 65 47 0.0 2.0 0.00 0.00 0.00 77 1015.1
20260510083442 65 47 0.0 3.0 0.00 0.00 0.00 77 1015.1
20260510082958 65 47 0.0 4.0 0.00 0.00 0.00 76 1015.0
20260510082446 65 40 1.0 4.0 0.00 0.00 0.00 76 1014.8
20260510082004 65 69 1.0 5.0 0.00 0.00 0.00 76 1014.8
20260510081453 64 62 1.0 5.0 0.00 0.00 0.00 76 1014.8
20260510080947 64 61 3.0 5.0 0.00 0.00 0.00 76 1014.7
20260510080457 64 12 2.0 6.0 0.00 0.00 0.00 76 1014.7
20260510075956 64 40 2.0 6.0 0.00 0.00 0.00 76 1014.7
20260510075447 64 53 2.0 6.0 0.00 0.00 0.00 77 1014.7
20260510074943 64 49 1.0 8.0 0.00 0.00 0.00 77 1014.6
20260510074457 64 63 3.0 8.0 0.00 0.00 0.00 77 1014.6
20260510073952 64 29 2.0 6.0 0.00 0.00 0.00 78 1014.6
20260510073509 64 35 4.0 6.0 0.00 0.00 0.00 77 1014.7
20260510073018 64 42 3.0 6.0 0.00 0.00 0.00 78 1014.6
20260510072446 63 31 2.0 6.0 0.00 0.00 0.00 78 1014.7
20260510072005 63 35 1.0 4.0 0.00 0.00 0.00 79 1014.7
20260510071502 63 39 2.0 4.0 0.00 0.00 0.00 79 1014.8
20260510070951 63 72 1.0 3.0 0.00 0.00 0.00 80 1014.8
20260510070507 63 38 2.0 5.0 0.00 0.00 0.00 80 1014.8
20260510070003 63 69 2.0 5.0 0.00 0.00 0.00 80 1014.8
20260510065451 62 46 0.0 3.0 0.00 0.00 0.00 81 1014.9
20260510064950 62 90 1.0 4.0 0.00 0.00 0.00 81 1014.9
20260510064439 62 66 1.0 4.0 0.00 0.00 0.00 81 1014.9
20260510064016 62 52 2.0 4.0 0.00 0.00 0.00 80 1014.9
20260510063451 62 101 1.0 4.0 0.00 0.00 0.00 81 1014.9
20260510062940 62 69 0.0 3.0 0.00 0.00 0.00 82 1014.8
20260510062516 61 104 0.0 3.0 0.00 0.00 0.00 82 1014.9
20260510061949 61 99 0.0 3.0 0.00 0.00 0.00 82 1014.9
20260510061440 61 96 1.0 3.0 0.00 0.00 0.00 82 1014.9
20260510060956 61 96 1.0 3.0 0.00 0.00 0.00 82 1014.9
20260510060445 61 93 1.0 4.0 0.00 0.00 0.00 82 1014.9
20260510055942 61 64 2.0 5.0 0.00 0.00 0.00 82 1014.8
20260510055459 61 61 2.0 5.0 0.00 0.00 0.00 82 1014.8
20260510054947 60 39 1.0 3.0 0.00 0.00 0.00 83 1014.8
20260510054445 60 38 0.0 3.0 0.00 0.00 0.00 83 1014.8
20260510054001 60 48 1.0 4.0 0.00 0.00 0.00 83 1014.8
20260510053450 60 44 2.0 4.0 0.00 0.00 0.00 83 1014.7
20260510052941 59 55 1.0 4.0 0.00 0.00 0.00 84 1014.7
20260510052517 59 56 1.0 4.0 0.00 0.00 0.00 84 1014.7
20260510052012 59 62 1.0 4.0 0.00 0.00 0.00 84 1014.7
20260510051445 58 53 0.0 4.0 0.00 0.00 0.00 85 1014.8
20260510050954 58 55 1.0 3.0 0.00 0.00 0.00 85 1014.8
20260510050451 58 55 1.0 4.0 0.00 0.00 0.00 85 1014.7
20260510045940 58 57 2.0 4.0 0.00 0.00 0.00 85 1014.7
20260510045438 58 57 1.0 5.0 0.00 0.00 0.00 86 1014.8
20260510044956 58 33 1.0 5.0 0.00 0.00 0.00 86 1014.7
20260510044445 58 28 1.0 3.0 0.00 0.00 0.00 86 1014.7
20260510043945 57 14 0.0 0.0 0.00 0.00 0.00 86 1014.9
20260510043459 57 14 0.0 0.0 0.00 0.00 0.00 86 1014.9
20260510043008 57 14 0.0 0.0 0.00 0.00 0.00 86 1014.8
20260510042503 57 14 0.0 0.0 0.00 0.00 0.00 86 1014.8
20260510041938 57 14 0.0 0.0 0.00 0.00 0.00 85 1014.8
20260510041453 57 14 0.0 0.0 0.00 0.00 0.00 86 1014.8
20260510040942 57 14 0.0 0.0 0.00 0.00 0.00 86 1014.8
20260510040438 57 14 0.0 0.0 0.00 0.00 0.00 85 1014.9
20260510035952 57 14 0.0 0.0 0.00 0.00 0.00 85 1014.9
20260510035440 57 14 0.0 0.0 0.00 0.00 0.00 85 1014.9
20260510034958 57 14 0.0 0.0 0.00 0.00 0.00 85 1014.9
20260510034449 57 14 0.0 0.0 0.00 0.00 0.00 85 1014.9
20260510033947 57 14 0.0 0.0 0.00 0.00 0.00 85 1015.0
20260510033456 57 14 0.0 0.0 0.00 0.00 0.00 84 1015.1
20260510033013 58 14 0.0 0.0 0.00 0.00 0.00 84 1015.1
20260510032448 58 14 0.0 0.0 0.00 0.00 0.00 84 1015.1
20260510031957 58 14 0.0 1.0 0.00 0.00 0.00 85 1015.1
20260510031455 58 14 0.0 3.0 0.00 0.00 0.00 84 1015.0
20260510030945 58 14 1.0 3.0 0.00 0.00 0.00 84 1015.0
20260510030443 58 14 0.0 1.0 0.00 0.00 0.00 84 1015.1
20260510025959 58 14 0.0 1.0 0.00 0.00 0.00 84 1015.2
20260510025448 58 14 0.0 0.0 0.00 0.00 0.00 84 1015.2
20260510024943 58 13 0.0 0.0 0.00 0.00 0.00 84 1015.3
20260510024458 58 13 0.0 2.0 0.00 0.00 0.00 84 1015.3
20260510024007 58 13 0.0 2.0 0.00 0.00 0.00 84 1015.4
20260510023503 58 14 0.0 0.0 0.00 0.00 0.00 83 1015.4
20260510022938 59 14 0.0 0.0 0.00 0.00 0.00 83 1015.5
20260510022447 59 14 0.0 0.0 0.00 0.00 0.00 83 1015.6
20260510021937 59 14 0.0 0.0 0.00 0.00 0.00 83 1015.6
20260510021453 59 14 0.0 0.0 0.00 0.00 0.00 82 1015.6
20260510020942 59 14 0.0 0.0 0.00 0.00 0.00 82 1015.6
20260510020440 59 14 0.0 0.0 0.00 0.00 0.00 82 1015.6
20260510015948 59 14 0.0 0.0 0.00 0.00 0.00 82 1015.6
20260510015447 59 14 0.0 0.0 0.00 0.00 0.00 82 1015.6
20260510014937 59 14 0.0 1.0 0.00 0.00 0.00 81 1015.6
20260510014510 59 14 0.0 2.0 0.00 0.00 0.00 81 1015.7
20260510013945 60 14 0.0 3.0 0.00 0.00 0.00 81 1015.7
20260510013443 60 14 1.0 3.0 0.00 0.00 0.00 80 1015.8
20260510013019 60 17 1.0 3.0 0.00 0.00 0.00 80 1015.8
20260510012446 60 26 0.0 1.0 0.00 0.00 0.00 79 1015.9
20260510011943 60 26 0.0 0.0 0.00 0.00 0.00 79 1015.9
20260510011454 60 26 0.0 1.0 0.00 0.00 0.00 79 1015.8
20260510010949 60 26 0.0 2.0 0.00 0.00 0.00 79 1015.8
20260510010440 60 26 0.0 2.0 0.00 0.00 0.00 79 1015.8
20260510005938 60 26 0.0 2.0 0.00 0.00 0.00 79 1015.8
20260510005453 60 27 0.0 2.0 0.00 0.00 0.00 79 1015.9
20260510004942 60 27 0.0 2.0 0.00 0.00 0.00 79 1015.8
20260510004459 60 28 1.0 2.0 0.00 0.00 0.00 79 1015.9
20260510003956 60 28 0.0 2.0 0.00 0.00 0.00 79 1016.1
20260510003445 61 28 1.0 3.0 0.00 0.00 0.00 79 1016.1
20260510002941 61 30 0.0 2.0 0.00 0.00 0.00 79 1016.1
20260510002454 61 30 0.0 1.0 0.00 0.00 0.00 79 1016.1
20260510001942 61 30 0.0 0.0 0.00 0.00 0.00 79 1016.1
20260510001459 61 30 0.0 1.0 0.00 0.00 0.00 79 1016.0
20260510000949 61 30 0.0 3.0 0.00 0.00 0.00 79 1016.0
20260510000448 61 30 0.0 3.0 0.00 0.00 0.00 79 1016.0
20260510000002 61 31 1.0 2.0 0.00 0.00 0.00 78 1016.1
20260509235451 61 33 0.0 2.0 0.00 0.00 0.00 78 1016.2
20260509234941 61 33 1.0 2.0 0.00 0.00 0.00 77 1016.2
20260509234502 61 34 0.0 2.0 0.00 0.00 0.00 77 1016.2
20260509233950 62 34 1.0 2.0 0.00 0.00 0.00 76 1016.2
20260509233445 62 38 0.0 2.0 0.00 0.00 0.00 76 1016.3
20260509233001 62 38 1.0 2.0 0.00 0.00 0.00 76 1016.4
20260509232448 62 38 0.0 1.0 0.00 0.00 0.00 75 1016.4
20260509231945 62 38 0.0 0.0 0.00 0.00 0.00 75 1016.3
20260509231502 62 38 0.0 0.0 0.00 0.00 0.00 75 1016.3
20260509230951 63 38 0.0 0.0 0.00 0.00 0.00 74 1016.3
20260509230441 63 38 0.0 0.0 0.00 0.00 0.00 74 1016.3
20260509225937 63 38 0.0 0.0 0.00 0.00 0.00 74 1016.3
20260509225453 63 38 0.0 0.0 0.00 0.00 0.00 73 1016.3
20260509225009 63 38 0.0 0.0 0.00 0.00 0.00 73 1016.2
20260509224454 63 38 0.0 0.0 0.00 0.00 0.00 73 1016.3
20260509223951 63 38 0.0 0.0 0.00 0.00 0.00 72 1016.3
20260509223507 63 38 0.0 2.0 0.00 0.00 0.00 72 1016.4
20260509223022 64 38 1.0 2.0 0.00 0.00 0.00 72 1016.4
20260509222451 64 38 0.0 2.0 0.00 0.00 0.00 71 1016.4
20260509221947 64 38 0.0 3.0 0.00 0.00 0.00 71 1016.3
20260509221455 64 38 1.0 3.0 0.00 0.00 0.00 70 1016.4
20260509221010 64 37 1.0 2.0 0.00 0.00 0.00 69 1016.2
20260509220446 65 37 0.0 3.0 0.00 0.00 0.00 69 1016.3
20260509220021 65 37 1.0 4.0 0.00 0.00 0.00 68 1016.3
20260509215448 65 70 0.0 2.0 0.00 0.00 0.00 67 1016.3
20260509214944 65 69 0.0 3.0 0.00 0.00 0.00 67 1016.2
20260509214453 65 69 0.0 3.0 0.00 0.00 0.00 66 1016.2
20260509213949 65 63 1.0 2.0 0.00 0.00 0.00 66 1016.1
20260509213446 66 84 1.0 2.0 0.00 0.00 0.00 65 1016.1
20260509212937 66 76 0.0 2.0 0.00 0.00 0.00 65 1016.2
20260509212453 66 77 1.0 2.0 0.00 0.00 0.00 64 1016.2
20260509212011 66 79 0.0 2.0 0.00 0.00 0.00 64 1016.2
20260509211439 66 63 0.0 4.0 0.00 0.00 0.00 64 1016.2
20260509210937 66 63 1.0 5.0 0.00 0.00 0.00 64 1016.2
20260509210456 66 66 2.0 5.0 0.00 0.00 0.00 63 1016.2
20260509205944 66 82 0.0 3.0 0.00 0.00 0.00 63 1016.1
20260509205502 66 103 1.0 6.0 0.00 0.00 0.00 63 1016.1
20260509204953 67 62 1.0 6.0 0.00 0.00 0.00 63 1016.3
20260509204451 67 57 3.0 6.0 0.00 0.00 0.00 64 1016.2
20260509203942 67 121 1.0 4.0 0.00 0.00 0.00 64 1016.0
20260509203440 67 108 1.0 4.0 0.00 0.00 0.00 64 1016.0
20260509202951 67 9 0.0 5.0 0.00 0.00 0.00 65 1016.2
20260509202450 68 5 2.0 5.0 0.00 0.00 0.00 65 1016.1
20260509201941 68 144 0.0 3.0 0.00 0.00 0.00 64 1015.8
20260509201438 68 142 1.0 5.0 0.00 0.00 0.00 64 1015.7
20260509200956 69 142 2.0 7.0 0.00 0.00 0.00 64 1015.6
20260509200452 69 121 3.0 7.0 0.00 0.00 0.00 64 1015.6
20260509195940 69 147 2.0 8.0 0.00 0.00 0.00 63 1015.6
20260509195513 69 140 4.0 8.0 0.00 0.00 0.00 63 1015.5
20260509194949 69 146 2.0 5.0 0.00 0.00 0.00 63 1015.5
20260509194506 70 148 2.0 5.0 0.00 0.00 0.00 63 1015.5
20260509194020 70 117 1.0 3.0 0.00 0.00 0.00 63 1015.4
20260509193448 70 116 0.0 8.0 0.00 0.00 0.00 63 1015.3
20260509192945 70 113 2.0 8.0 0.00 0.00 0.00 62 1015.4
20260509192451 70 122 3.0 10.0 0.00 0.00 0.00 63 1015.3
20260509191946 71 119 4.0 10.0 0.00 0.00 0.00 63 1015.3
20260509191503 71 171 3.0 7.0 0.00 0.00 0.00 63 1015.2
20260509191019 71 135 3.0 7.0 0.00 0.00 0.00 63 1015.1
20260509190446 72 182 1.0 7.0 0.00 0.00 0.00 63 1015.1
20260509190004 72 153 3.0 7.0 0.00 0.00 0.00 62 1015.0
20260509185458 72 128 2.0 7.0 0.00 0.00 0.00 61 1015.0
20260509184947 72 140 3.0 7.0 0.00 0.00 0.00 61 1014.9
20260509184445 73 123 2.0 6.0 0.00 0.00 0.00 61 1014.9
20260509184001 73 122 2.0 6.0 0.00 0.00 0.00 60 1014.8
20260509183511 73 109 1.0 4.0 0.00 0.00 0.00 58 1014.7
20260509182947 74 92 1.0 6.0 0.00 0.00 0.00 57 1014.7
20260509182500 74 89 2.0 4.0 0.00 0.00 0.00 54 1014.6